Location: Muenchen
(48.1800°N, 11.5800°E)
Time: 19:59:17
(UTC+02:00)

Sich 1 Rocket - Visible Passes

Search period start: 29 August 2016 00:00
Search period end: 08 September 2016 00:00
Orbit: 616 x 654 km, 82.5° (Epoch: 29 August)

Date Brightness Start Highest point End Pass type
(mag) Time Alt. Az. Time Alt. Az. Time Alt. Az.
29 Aug 5.1 03:47:21 10° N 03:51:23 34° ENE 03:55:23 10° SE visible
29 Aug 4.6 05:25:48 10° NNW 05:29:27 26° W 05:33:05 10° SW visible
30 Aug 3.9 04:09:27 10° N 04:13:51 66° E 04:17:16 16° SSE visible
30 Aug 5.4 05:49:16 10° NW 05:51:28 14° W 05:53:41 10° WSW visible
31 Aug 6.3 02:54:49 10° NNE 02:57:32 16° ENE 03:00:14 10° ESE visible
31 Aug 3.5 04:31:49 10° NNW 04:36:11 62° W 04:38:25 27° SSW visible
01 Sep 5.4 03:16:20 10° N 03:20:11 28° ENE 03:22:17 20° ESE visible
01 Sep 4.4 04:54:29 10° NNW 04:58:22 31° W 04:59:43 26° WSW visible
02 Sep 4.1 03:38:21 10° N 03:42:41 55° ENE 03:43:41 44° ESE visible
02 Sep 5.1 05:17:40 10° NW 05:20:27 17° W 05:21:07 16° W visible
03 Sep 6.3 02:24:04 10° NNE 02:26:16 13° ENE 02:27:44 12° E visible
03 Sep 3.4 04:00:39 10° NNW 04:05:03 75° W 04:05:10 75° WSW visible
04 Sep 5.5 02:45:21 10° NNE 02:48:58 24° ENE 02:49:18 24° ENE visible
04 Sep 4.3 04:23:13 10° NNW 04:26:45 36° WNW 04:26:45 36° WNW visible
05 Sep 4.7 03:07:15 10° N 03:10:55 42° NE 03:10:55 42° NE visible
05 Sep 5.2 04:46:12 10° NW 04:48:22 18° WNW 04:48:22 18° WNW visible
06 Sep 6.4 01:53:34 10° NE 01:55:01 11° ENE 01:55:09 11° ENE visible
06 Sep 4.4 03:29:29 10° N 03:32:36 45° N 03:32:36 45° N visible
07 Sep 6.0 02:14:24 10° NNE 02:16:52 20° NE 02:16:52 20° NE visible
07 Sep 5.0 03:51:58 10° NNW 03:54:19 28° NW 03:54:19 28° NW visible
